Regional Weather Roundup
Issued by NWS

Home | Current Version | Previous Version | Graphics & Text | Print | Product List | Glossary On
Versions: 1 2 3 4 5 6 7 8 9 10 11 12 13 14 15 16 17 18 19 20 21 22 23 24 25 26 27 28 29 30 31 32 33 34 35 36 37 38 39 40 41 42 43 44 45 46 47 48 49 50
000
ASUS43 KMKX 262200
RWRWI

WISCONSIN REGIONAL WEATHER ROUNDUP
NATIONAL WEATHER SERVICE MILWAUKEE/SULLIVAN WI
500 PM CDT MON SEP 26 2016

NOTE: "FAIR" INDICATES FEW OR NO CLOUDS BELOW 12,000 FEET WITH NO
SIGNIFICANT WEATHER AND/OR OBSTRUCTIONS TO VISIBILITY.

WIZ001-002-006>008-014>016-023>028-262300-
NORTHWEST WISCONSIN

CITY           SKY/WX    TMP DP  RH WIND       PRES   REMARKS
SUPERIOR ARPT  CLOUDY    55  44  66 W9G17     29.75F
ASHLAND        CLOUDY    53  45  74 W16G24    29.73S
HAYWARD        LGT RAIN  55  41  59 W7G20     29.78S
SIREN          CLOUDY    61  38  42 W20G29    29.81F
CUMBERLAND     CLOUDY    55  37  50 W21G31    29.83S
RICE LAKE      MOSUNNY   60  37  42 W20G26    29.84S
CHETEK         NOT AVBL
LADYSMITH      CLOUDY    58  40  51 W14G29    29.81F
EAU CLAIRE     NOT AVBL
MENOMONIE      MOSUNNY   63  40  42 W17G29    29.86S
NEW RICHMOND   CLOUDY    61  37  41 W17G28    29.87S
OSCEOLA        CLOUDY    62  36  38 W20G30    29.88F
$$

WIZ003>005-009-010-017-018-262300-
NORTH CENTRAL WISCONSIN

CITY           SKY/WX    TMP DP  RH WIND       PRES   REMARKS
MANITOWISH WTR NOT AVBL
ARBOR VITAE    DRIZZLE   52  49  90 W10G25    29.74S
WOODRUFF       DRIZZLE   52  49  90 W10G25    29.74S
RHINELANDER    LGT RAIN  50  47  89 W12G21    29.77R
EAGLE RIVER    DRIZZLE   48  46  91 W17G26    29.72S
LAND O LAKES   DRIZZLE   48  47  94 W8G20     29.72R
PHILLIPS       CLOUDY    53  42  66 W7        29.77S
TOMAHAWK       DRIZZLE   49  44  81 W9        29.79S
MEDFORD        CLOUDY    55  39  56 W16G24    29.81R
MERRILL        CLOUDY    55  42  63 W12G21    29.80R
$$

WIZ029-030-035-036-043>047-262300-
CENTRAL WISCONSIN

CITY           SKY/WX    TMP DP  RH WIND       PRES   REMARKS
WAUSAU         CLOUDY    55  41  59 W15       29.79S
MOSINEE        NOT AVBL
MARSHFIELD     CLOUDY    60  37  42 W24G33    29.82F
STEVENS POINT  CLOUDY    57  37  47 W15G23    29.83R
WAUPACA        CLOUDY    63  37  37 W17       29.82R
WAUTOMA        MOSUNNY   63  39  41 W22G29    29.84R
WISC RAPIDS    PTSUNNY   62  38  40 W20G30    29.85S
CAMP DOUGLAS   NOT AVBL
$$

WIZ011>013-019>022-031-037>040-048>050-262300-
NORTHEAST WISCONSIN

CITY           SKY/WX    TMP DP  RH WIND       PRES   REMARKS
ANTIGO         LGT RAIN  51  43  72 W15G21    29.78R
SHAWANO        CLOUDY    61  39  44 W12G24    29.78R
OCONTO         NOT AVBL
STURGEON BAY   CLOUDY    60  41  49 W18G29    29.75F
GREEN BAY      CLOUDY    62  41  46 W20G26    29.78S
MANITOWOC      NOT AVBL
APPLETON       PTSUNNY   61  34  36 W20G29    29.80R
CLINTONVILLE   NOT AVBL
OSHKOSH        MOSUNNY   63  37  38 W13G29    29.81S
$$

WIZ032>034-041-042-053>061-262300-
SOUTHWEST WISCONSIN

CITY           SKY/WX    TMP DP  RH WIND       PRES   REMARKS
LA CROSSE      SUNNY     69  36  29 NW18      29.87S
SPARTA         PTSUNNY   64  38  38 NW14G22   29.88S
VIROQUA        SUNNY     65  30  26 W15G28    29.89S
BOSCOBEL       SUNNY     70  31  23 W18G29    29.90F
PRAIRIE DU CHI SUNNY     69  28  21 W20G30    29.91S
PLATTEVILLE    SUNNY     67  35  30 W25G38    29.94S
$$

WIZ056-057-062-063-064-067-068-262300-
SOUTH CENTRAL WISCONSIN

CITY           SKY/WX    TMP DP  RH WIND       PRES   REMARKS
REEDSBURG      NOT AVBL
BARABOO/DELLS  MOSUNNY   65  32  28 W20       29.87R
LONE ROCK      NOT AVBL
MINERAL POINT  SUNNY     68  32  26 W24G31    29.91F
MADISON        PTSUNNY   66  33  29 W10G28    29.87S
MIDDLETON      NOT AVBL
WATERTOWN      PTSUNNY   65  37  34 W13G25    29.86F
MONROE         SUNNY     64  32  29 W29G38    29.92S
JANESVILLE     MOSUNNY   68  32  26 W16G31    29.90S
$$

WIZ051-052-058>065-066-070>072-262300-
SOUTHEAST WISCONSIN

CITY           SKY/WX    TMP DP  RH WIND       PRES   REMARKS
MILWAUKEE      MOSUNNY   66  35  31 W18G29    29.87F
WAUKESHA       PTSUNNY   63  36  36 W12G29    29.88F
MILWAUKEE/TIMM PTSUNNY   64  30  27 W16G25    29.87S
RACINE         MOSUNNY   66  35  31 W16G28    29.89F
BURLINGTON     MOSUNNY   65  33  30 W15G25    29.89S
KENOSHA        MOSUNNY   67  36  31 W20G31    29.89S
FOND DU LAC    CLOUDY    64  36  35 W16G28    29.83S
SHEBOYGAN      CLOUDY    62  38  40 W14G26    29.82F
WEST BEND      CLOUDY    61  34  36 W15G24    29.85S
JUNEAU         MOSUNNY   62  35  36 W16G28    29.87S
$$

LSZ147-162-262300-
LAKE SUPERIOR

STATION/POSITION TIME  TEMP    WIND        PRES    WAVE
                       AIR SEA DIR/SP/G            HT/PER
                 (UTC) (F)     (DEG/KT/KT) (MB)    (FT/S)
W MID LAKE BUOY  2050   51 48  250/ 25/ 29 1000.9R   8/ 7
DEVILS ISLAND    2100   53     250/ 30/ 36 1004.0R
SAXON HARBOR     2140   52     210/  9/ 15 1006.1S
$$

LMZ867-665-643>646-262300-
LAKE MICHIGAN

STATION/POSITION TIME  TEMP    WIND        PRES    WAVE
                       AIR SEA DIR/SP/G            HT/PER
                 (UTC) (F)     (DEG/KT/KT) (MB)    (FT/S)
CHAMBERS ISLAND  2100   59     220/ 12/ 21 1006.1F
N MID LAKE BUOY  2050   60 67  250/ 29/ 33 1004.3F   6/ 6
NORTHPORT PIER   2100   59     250/  6/ 18 1006.4S
KEWAUNEE LAKESHO 2100   63     260/ 18/ 24 1007.8R
SHEBOYGAN LAKESH 2100   63     260/ 24/ 28 1009.7R
PORT WASHINGTON  2100   66     260/ 14/ 23 1011.5R
ATWATER BUOY     2100   64 54  240/ 17/ 25 1011.2F
MILWAUKEE LAKESH 2110   65     270/ 21/ 27   N/A
S MID LAKE BUOY  2050   65 71  260/ 21/ 27 1011.3R   5/ 5
KENOSHA   LAKESH 2100   67     260/ 19/ 26 1011.9F
$$

TC  - TEMPERATURE IN CELSIUS
VSB - VISIBILITY IN STATUTE MILES
WCI - WIND CHILL INDEX
HX  - HEAT INDEX





USA.gov is the U.S. government's official web portal to all federal, state and local government web resources and services.